Location: Lisens
(47.1333°N, 11.1333°E)
Time: 00:48:00
(UTC+00:00)

Daily predictions for brighter satellites

Satellite Brightness Start Highest point End
(mag) Time Altitude Azimuth Time Altitude Azimuth Time Altitude Azimuth
USA 307 2.8 00:07:01 50° WSW 00:08:04 87° NNW 00:12:17 10° ENE
NOSS 3-1 (A) 4.5 00:01:22 10° NW 00:08:33 45° WSW 00:12:10 30° SSW
Cosmos 1125 Rocket 3.7 00:07:03 36° SW 00:09:01 61° WNW 00:14:12 10° NNE
Cosmos 332 Rocket 3.7 00:09:34 47° S 00:10:54 74° ESE 00:15:42 10° NNE
Cosmos 883 Rocket 4.5 00:08:27 36° SSW 00:11:15 86° W 00:17:38 10° N
Cosmos 1455 4.2 00:09:57 10° NNE 00:12:58 23° ENE 00:15:03 15° ESE
Cosmos 2219 Rocket 3.9 00:09:56 11° WSW 00:14:20 26° NW 00:19:01 10° N
CZ-2D R/B 3.3 00:11:49 10° NNE 00:16:38 33° E 00:19:18 21° SE
Meteor 1-24 Rocket 4.3 00:15:59 27° SSE 00:18:38 48° E 00:23:50 10° NNE
Okean 1 Rocket 3.8 00:17:01 10° NNW 00:21:06 37° W 00:21:51 35° WSW
Cosmos 1300 3.0 00:22:30 10° NNW 00:26:10 47° W 00:26:26 46° WSW
Cosmos 2084 Rocket 3.0 00:26:29 60° S 00:27:01 72° SE 00:30:49 10° NE
COSMOS 2455 3.9 00:29:30 22° SSE 00:32:17 33° ESE 00:37:37 10° NE
Cosmos 2074 Rocket 4.4 00:28:37 10° N 00:34:52 61° ENE 00:39:44 17° SSE
SL-16 R/B 3.1 00:32:00 11° SE 00:37:52 58° ENE 00:43:59 10° N
USA 308 3.3 00:36:37 25° W 00:38:55 60° NNW 00:43:03 10° NE
Resurs 1-4 Rocket 2.6 00:34:10 10° NNE 00:39:19 52° E 00:42:05 26° SSE
BREEZE-M DEB (TANK) 4.5 00:23:50 10° WSW 00:41:28 89° NNW 00:45:53 10° ENE
Cosmos 1709 Rocket 4.3 00:35:57 10° NNW 00:41:48 48° W 00:44:26 30° SW
USA 215 4.2 00:37:04 10° NE 00:43:15 47° NNW 00:49:27 10° W
SME Rocket 3.2 00:42:21 37° S 00:43:59 76° WSW 00:49:20 10° NNW
Cosmos 2237 Rocket 2.8 00:41:58 24° WSW 00:45:07 48° NW 00:50:40 10° NNE
MOS 1 Rocket 4.2 00:43:09 12° SE 00:46:43 40° ENE 00:50:47 10° N
Meteor 2-5 Rocket 3.7 00:44:49 31° SSW 00:47:41 87° W 00:53:23 10° N
IDEFIX/ARIANE 42P 4.1 00:43:49 10° NE 00:48:22 29° E 00:52:18 13° SSE
Cosmos 2315 Rocket 4.4 00:46:21 28° SW 00:49:36 54° WNW 00:55:52 10° N
Thor Agena Rocket 3.6 00:44:36 10° NNE 00:49:53 73° WNW 00:52:27 31° SSW
ADEOS II 3.2 00:46:14 10° NNE 00:51:04 36° E 00:54:39 16° SSE
Cosmos 2184 Rocket 4.1 00:45:49 10° N 00:52:06 78° E 00:56:46 19° SSE
Cosmos 1943 Rocket 2.1 00:49:44 10° NNW 00:55:25 74° WSW 00:59:33 19° SSE
Lacrosse 5 1.8 00:54:36 31° SW 00:57:07 85° SE 01:02:14 10° NE
Cosmos 1455 Rocket 3.6 00:53:11 10° NNW 00:57:26 44° W 00:58:47 34° SW
USA 305 3.9 00:57:35 13° W 01:01:09 44° NNW 01:05:10 10° NE
AQUA 4.3 01:01:36 10° NNE 01:06:17 55° E 01:09:12 22° S
Cosmos 2297 3.7 01:01:17 10° NNW 01:07:03 77° WSW 01:12:17 13° SSE
Cosmos 1536 Rocket 3.9 01:05:16 25° SSE 01:07:41 62° E 01:12:02 10° NNE
Lacrosse 5 rocket 1.1 01:07:18 38° SW 01:08:42 75° SE 01:12:45 10° NE
Cosmos 1025 Rocket 3.8 01:13:12 27° WSW 01:14:55 39° WNW 01:18:59 10° N
Cosmos 2278 Rocket 3.9 01:11:58 10° WNW 01:15:09 15° W 01:15:59 15° WSW
Cosmos 1975 Rocket 4.1 01:13:41 24° WSW 01:15:29 33° WNW 01:19:34 10° N
Cosmos 1703 4.1 01:13:29 20° SSE 01:15:54 45° E 01:19:41 10° NNE
NPP 3.6 01:13:39 10° NNE 01:19:05 89° W 01:22:34 23° SSW
USA 267 4.3 01:19:02 22° SW 01:19:59 22° SW 01:24:55 10° WNW
Nadezhda 1 Rocket 4.1 01:20:01 19° S 01:24:47 84° E 01:31:05 10° N
Cosmos 1656 Rocket 4.0 01:20:24 10° NNW 01:25:48 64° ENE 01:31:11 10° SE
Cosmos 292 Rocket 3.8 01:24:13 24° SSW 01:27:07 79° ESE 01:31:56 10° NNE
Cosmos 2369 Rocket 2.2 01:22:46 10° NNW 01:28:24 82° ENE 01:34:00 10° SSE
ERBS 4.3 01:27:41 10° WNW 01:30:08 21° NNW 01:32:35 10° NNE
Meteor 1-28 Rocket 3.1 01:29:31 16° SSE 01:32:24 87° ENE 01:36:09 10° NNW
SL-16 R/B 2.5 01:30:19 21° SW 01:34:04 56° WNW 01:39:42 10° NNE
YAOGAN 11 4.2 01:33:18 19° S 01:36:26 61° WSW 01:40:55 10° NNW
Cosmos 407 Rocket 4.3 01:31:15 10° NNW 01:36:30 54° ENE 01:41:39 10° SE
Helios 1A 3.0 01:33:43 12° SSE 01:37:41 88° ENE 01:41:56 10° NNW
CRYOSAT 2 4.5 01:37:02 19° SSW 01:40:25 60° W 01:45:16 10° NNW
Cosmos 1140 Rocket 4.0 01:36:46 10° NNW 01:42:00 63° ENE 01:47:11 10° SSE
USA 306 4.4 01:39:38 10° WNW 01:43:28 34° N 01:47:18 10° ENE
Meteor 1-21 Rocket 4.5 01:39:53 13° S 01:44:58 69° E 01:50:30 10° NNE
USA 307 4.3 01:44:12 10° WNW 01:48:04 35° N 01:51:56 10° ENE
Cosmos 1455 3.3 01:45:17 10° NNW 01:48:25 26° W 01:49:48 20° SW
DEBRIS 4.2 01:34:31 10° W 01:48:26 80° N 01:52:11 10° E
NOSS 3-3 (A) 4.1 01:46:46 17° SSW 01:51:07 62° ESE 01:57:29 10° NE
NOSS 3-3 (C) 4.2 01:46:52 17° SSW 01:51:14 61° ESE 01:57:34 10° NE
BREEZE-M DEB (TANK) 3.9 01:49:00 18° SSW 01:51:52 30° SSE 01:54:19 10° E
UNK 4.3 01:50:19 18° SSW 01:53:20 39° W 01:57:40 10° NNW
CZ-2D R/B 2.9 01:51:46 10° N 01:56:43 39° WNW 02:00:37 15° SW
SL-8 Rocket 4.3 01:51:25 10° N 01:57:46 72° E 02:04:04 10° SSE
Cosmos 1603 4.1 01:52:50 13° S 01:57:47 61° ESE 02:03:23 10° NNE
Cosmos 2341 Rocket 4.1 01:51:51 10° N 01:58:17 85° E 02:04:42 10° S
Cosmos 2154 Rocket 4.4 01:52:36 10° NNW 01:58:40 48° W 02:04:11 12° SSW
Cosmos 1271 Rocket 3.5 01:57:22 10° NNW 02:00:52 34° W 02:03:19 17° SSW
Cosmos 1892 Rocket 4.0 02:03:13 10° S 02:07:37 63° E 02:12:04 10° NNE
Gblst 52 Del rocket 4.3 02:02:20 10° WNW 02:08:06 78° NNE 02:13:35 10° ESE
Cosmos 1726 Rocket 3.6 02:03:46 10° N 02:08:13 89° E 02:12:35 10° S
ALOS 3.9 02:08:46 10° NNE 02:12:55 31° E 02:17:03 10° SSE
COSMOS 2441 4.4 02:10:52 10° NNE 02:15:46 82° WNW 02:20:35 10° SSW
ARIANE 5 R/B 4.3 02:12:39 10° NE 02:17:02 29° E 02:21:20 10° SSE
COSMOS 2455 3.4 02:12:38 12° SW 02:18:01 52° NW 02:23:55 10° NNE
Resurs 1-4 Rocket 3.5 02:14:34 10° N 02:18:50 25° WNW 02:23:05 10° WSW
CBERS-1 4.3 02:15:53 10° NNE 02:21:01 69° ESE 02:26:07 10° S
Genesis I 3.3 02:17:37 10° NW 02:21:38 59° WSW 02:25:32 10° SSE
SL-16 R/B 3.5 02:17:05 12° SSW 02:21:50 27° W 02:27:02 10° NW
MOS 1 Rocket 4.5 02:22:25 12° SW 02:25:09 21° W 02:28:27 10° NW
Cosmos 2228 4.0 02:22:32 10° NNW 02:26:22 30° W 02:30:09 10° SSW
Cosmos 1943 3.3 02:21:35 11° SSW 02:27:04 76° WNW 02:32:47 10° NNE
MSX 4.1 02:22:16 10° N 02:27:56 60° WNW 02:33:35 10° SSW
IDEFIX/ARIANE 42P 3.2 02:23:06 10° N 02:28:05 43° WNW 02:33:02 10° SW
Cosmos 2056 Rocket 3.8 02:23:41 10° S 02:28:48 66° ESE 02:34:04 10° NNE
ADEOS II 3.0 02:25:59 10° N 02:30:43 35° WNW 02:35:26 10° SW
DNEPR-1 R/B 3.6 02:29:15 11° SW 02:33:20 81° NW 02:38:07 10° NE
IRS-1D 3.8 02:30:25 10° N 02:35:41 60° WNW 02:40:51 10° SSW
Meteor 1-11 4.4 02:31:53 10° S 02:37:42 85° E 02:43:30 10° NNE
Cosmos 1943 Rocket 4.0 02:36:21 10° WNW 02:38:08 11° W 02:39:54 10° WSW
Cosmos 2251 Rocket 4.5 02:34:06 10° NW 02:38:33 28° W 02:43:00 10° SSW
Cosmos 1190 Rocket 4.0 02:34:56 10° NNW 02:40:12 68° WSW 02:45:27 10° S
Lacrosse 5 3.2 02:35:54 10° W 02:40:34 35° NNW 02:45:14 10° NE
CZ-2C R/B 3.1 02:35:50 10° NNE 02:40:53 56° E 02:45:46 10° S
Cosmos 1328 4.4 02:37:08 10° SSW 02:40:54 42° WNW 02:44:44 10° N
FENGYUN 3A 4.0 02:35:31 10° NNE 02:40:54 69° ESE 02:46:16 10° S
Cosmos 2218 Rocket 4.1 02:37:31 10° NNW 02:43:42 65° W 02:49:55 10° S
Cosmos 1825 3.3 02:40:56 10° SSE 02:44:28 43° E 02:48:01 10° NNE
Lacrosse 5 rocket 2.9 02:44:36 10° W 02:48:07 29° NNW 02:51:48 10° NE
Cosmos 2058 Rocket 3.1 02:44:12 10° NNW 02:48:32 59° W 02:52:48 10° S
Helios 1B rocket 2.4 02:46:03 10° N 02:50:07 71° WNW 02:54:09 10° SSW
Cosmos 1626 Rocket 4.1 02:46:52 10° S 02:51:12 61° E 02:55:31 10° NNE
PAYLOAD A 4.2 02:46:30 10° NNE 02:51:14 68° ESE 02:56:04 10° S
